NOAA 16 DEB

Satellite information

Favourite Embed

Satellite Type and Status

DEBRISIN ORBIT

Key statistics

Satellite NOAA 16 DEB at a glance.

Uptime

9117

Days in orbit

Revolutions

≈ 14.2

Per day

Orbit

SSO

Sun Synchronous Orbit

Inclination

98.7

Latest

Satellite identification and parameters

Extended collection of information and parameters for NOAA 16 DEB.

Object identification

Identified? True

Debris? True

Object name: NOAA 16 DEB

International designator: 2000-055SS

Object number (NORAD): 42398

Object ID (CCSDS): 42398

Country: UNITED STATES OF AMERICA (US)

Current information (Y/N): Y

RCS size: SMALL

Orbital parameters

Period: 101.734 minutes

Inclination: 98.6574 deg

SMA: 7218.919 km

Apoapsis: 862.709 km

Periapsis: 818.858 km

RAAN: 256.9699 deg

Eccentricy: 0.00303719

Argument of periapsis: 328.8158 deg

Mean anomaly: 31.1213 deg

Mean motion: 14.15450049 rev/day

Mean motion (dot): 0.00003488 rev/day2

B* drag term: 0.0018002874 1/REarth

Two-line elements (TLE)

Creation date: Sept. 6, 2025, 2:09 a.m.

Reference frame: TEME

Reference center: EARTH

Epoch: Sept. 5, 2025, 11:09 p.m. UTC

TLE line 0: 0 NOAA 16 DEB

TLE line 1: 1 42398U 00055SS 25248.96512750 .00003488 00000-0 18003-2 0 9999

TLE line 2: 2 42398 98.6574 256.9699 0030372 328.8158 31.1213 14.15450049488906

Live tracking on map

Real-time ground track for satellite NOAA 16 DEB.

In-orbit conjunctions

A list of the most updated potential collisions computed for object NOAA 16 DEB.

Target Orbit TCA Probability of collision Miss distance Type
FENGYUN 1C DEB SSO 2025-07-23 14:54:12 0.0001027559 302.0 (m) DEBRIS
SL-16 DEB LEO 2025-05-18 11:45:26 0.0003580026 60.0 (m) DEBRIS
CZ-6A DEB LEO 2025-01-27 06:25:26 0.0001676773 982.0 (m) DEBRIS

Associated space launch

The NOAA K, L and M POES satellites begin the fifth generation of improved environmental monitoring in support of NOAA missions. The instrument payload has significant improvements and additions/deletions. The instrument changes have effected the spacecraft subsystems and data formats.

NOAA 16 DEB was lifted into orbit during the mission ‘Titan II SLV | NOAA 16’, on board a Titan II SLV space rocket.

The launch took place on Sept. 21, 2000, 10:22 a.m. from Space Launch Complex 4W.

For more information about the launch, click the button.

Launch to space Titan II SLV | NOAA 16
Titan II SLV | NOAA 16

Agency: N/A

Status: Launch Successful

Launch date: Sept. 21, 2000, 10:22 a.m. UTC

Rocket: Titan II SLV

Launch pad: Space Launch Complex 4W

Location: Vandenberg SFB, CA, USA

...

Latest news about this satellite

There are no fresh news available about this satellite. Check back as we update our databases every day.


Newsletter sign-up

Weekly statistics, charts and insights to help you stay on top of the space industry.